Wetterdaten: Dienstag, 19.07.2016
Datum Zeit Temp. A. Aussentemp2 Feuchte A. Luftdruck Regen Wind Richtung Richtung Sonnenschein Helligkeit Solar
19.07.2016 00:00 21,1 C 22,9 C 61 % 1019,7 hPa 0,0 l/m 6,5 km/h (2 Bft) N-NO 25 0 min 0 lux 0 W/m
19.07.2016 00:06 20,8 C 23,0 C 63 % 1019,7 hPa 0,0 l/m 6,1 km/h (2 Bft) N-NO 25 0 min 0 lux 0 W/m
19.07.2016 00:10 20,8 C 22,9 C 63 % 1019,7 hPa 0,0 l/m 6,4 km/h (2 Bft) N-NO 20 0 min 0 lux 0 W/m
19.07.2016 00:15 20,9 C 22,8 C 64 % 1019,7 hPa 0,0 l/m 1,6 km/h (1 Bft) N 10 0 min 0 lux 0 W/m
19.07.2016 00:20 20,9 C 22,8 C 64 % 1019,7 hPa 0,0 l/m 6,3 km/h (2 Bft) N 10 0 min 0 lux 0 W/m
19.07.2016 00:25 20,9 C 22,8 C 64 % 1019,7 hPa 0,0 l/m 5,4 km/h (2 Bft) N-NO 15 0 min 0 lux 0 W/m
19.07.2016 00:30 21,0 C 22,8 C 63 % 1019,7 hPa 0,0 l/m 8,3 km/h (2 Bft) N 10 0 min 0 lux 0 W/m
19.07.2016 00:35 21,0 C 22,7 C 63 % 1019,7 hPa 0,0 l/m 8,5 km/h (2 Bft) N-NO22.5 15 0 min 0 lux 0 W/m
19.07.2016 00:40 21,1 C 22,7 C 63 % 1019,7 hPa 0,0 l/m 6,8 km/h (2 Bft) N-NO22.5 25 0 min 0 lux 0 W/m
19.07.2016 00:45 21,1 C 22,7 C 63 % 1019,7 hPa 0,0 l/m 8,6 km/h (2 Bft) N-NO 20 0 min 0 lux 0 W/m
19.07.2016 00:50 21,0 C 22,7 C 62 % 1019,7 hPa 0,0 l/m 6,6 km/h (2 Bft) NO 50 0 min 0 lux 0 W/m
19.07.2016 00:55 20,8 C 22,7 C 63 % 1019,7 hPa 0,0 l/m 3,7 km/h (1 Bft) NO 50 0 min 0 lux 0 W/m
19.07.2016 01:01 20,6 C 22,6 C 63 % 1019,7 hPa 0,0 l/m 4,0 km/h (1 Bft) NO 50 0 min 0 lux 0 W/m
19.07.2016 01:05 20,2 C 22,6 C 64 % 1019,7 hPa 0,0 l/m 0,0 km/h (0 Bft) NO 50 0 min 0 lux 0 W/m
19.07.2016 01:10 20,1 C 22,5 C 65 % 1019,7 hPa 0,0 l/m 6,5 km/h (2 Bft) NO 50 0 min 0 lux 0 W/m
19.07.2016 01:15 20,0 C 22,5 C 66 % 1019,7 hPa 0,0 l/m 8,0 km/h (2 Bft) NO 45 0 min 0 lux 0 W/m
19.07.2016 01:21 20,0 C 22,6 C 65 % 1019,7 hPa 0,0 l/m 11,0 km/h (2 Bft) NO 45 0 min 0 lux 0 W/m
19.07.2016 01:25 20,1 C 22,5 C 65 % 1019,7 hPa 0,0 l/m 7,0 km/h (2 Bft) NO 45 0 min 0 lux 0 W/m
19.07.2016 01:30 20,1 C 22,5 C 64 % 1019,7 hPa 0,0 l/m 11,1 km/h (2 Bft) NO 45 0 min 0 lux 0 W/m
19.07.2016 01:35 20,1 C 22,6 C 64 % 1019,7 hPa 0,0 l/m 11,3 km/h (2 Bft) NO22.5 45 0 min 0 lux 0 W/m
19.07.2016 01:40 20,0 C 22,5 C 64 % 1019,7 hPa 0,0 l/m 4,0 km/h (1 Bft) NO 40 0 min 0 lux 0 W/m
19.07.2016 01:45 19,8 C 22,6 C 64 % 1019,7 hPa 0,0 l/m 4,3 km/h (1 Bft) NO 35 0 min 0 lux 0 W/m
19.07.2016 01:51 19,6 C 22,5 C 65 % 1019,7 hPa 0,0 l/m 0,9 km/h (0 Bft) NO 35 0 min 0 lux 0 W/m
19.07.2016 01:55 19,6 C 22,3 C 65 % 1019,7 hPa 0,0 l/m 0,0 km/h (0 Bft) NO 40 0 min 0 lux 0 W/m
19.07.2016 02:00 19,6 C 22,3 C 65 % 1019,7 hPa 0,0 l/m 0,0 km/h (0 Bft) NO 40 0 min 0 lux 0 W/m
19.07.2016 02:05 19,6 C 22,3 C 65 % 1019,7 hPa 0,0 l/m 0,0 km/h (0 Bft) NO 40 0 min 0 lux 0 W/m
19.07.2016 02:10 19,4 C 22,2 C 65 % 1019,7 hPa 0,0 l/m 0,6 km/h (0 Bft) NO 40 0 min 0 lux 0 W/m
19.07.2016 02:15 19,4 C 22,2 C 65 % 1019,7 hPa 0,0 l/m 0,2 km/h (0 Bft) NO 40 0 min 0 lux 0 W/m
19.07.2016 02:20 19,3 C 22,1 C 65 % 1019,7 hPa 0,0 l/m 3,4 km/h (1 Bft) NO 40 0 min 0 lux 0 W/m
19.07.2016 02:25 19,2 C 22,1 C 65 % 1019,7 hPa 0,0 l/m 2,1 km/h (1 Bft) O-NO 65 0 min 0 lux 0 W/m
19.07.2016 02:30 19,1 C 22,1 C 66 % 1019,7 hPa 0,0 l/m 2,9 km/h (1 Bft) O-NO 75 0 min 0 lux 0 W/m
19.07.2016 02:36 19,1 C 22,0 C 66 % 1019,7 hPa 0,0 l/m 0,6 km/h (0 Bft) O-NO 75 0 min 0 lux 0 W/m
19.07.2016 02:40 18,9 C 21,9 C 67 % 1019,7 hPa 0,0 l/m 1,0 km/h (0 Bft) O 80 0 min 0 lux 0 W/m
19.07.2016 02:45 18,8 C 21,9 C 67 % 1019,7 hPa 0,0 l/m 0,7 km/h (0 Bft) O-NO 75 0 min 0 lux 0 W/m
19.07.2016 02:50 18,6 C 21,8 C 67 % 1019,7 hPa 0,0 l/m 0,0 km/h (0 Bft) O-NO 75 0 min 0 lux 0 W/m
19.07.2016 02:55 18,5 C 21,7 C 67 % 1019,7 hPa 0,0 l/m 0,2 km/h (0 Bft) O-NO 75 0 min 0 lux 0 W/m
19.07.2016 03:00 18,4 C 21,8 C 67 % 1019,7 hPa 0,0 l/m 0,5 km/h (0 Bft) O-NO 75 0 min 0 lux 0 W/m
19.07.2016 03:05 18,4 C 21,7 C 67 % 1019,7 hPa 0,0 l/m 0,0 km/h (0 Bft) O-NO 75 0 min 0 lux 0 W/m
19.07.2016 03:10 18,4 C 21,6 C 67 % 1019,7 hPa 0,0 l/m 0,0 km/h (0 Bft) O-NO 75 0 min 0 lux 0 W/m
19.07.2016 03:15 18,4 C 21,6 C 67 % 1019,7 hPa 0,0 l/m 0,0 km/h (0 Bft) O-NO 75 0 min 0 lux 0 W/m
19.07.2016 03:21 18,3 C 21,7 C 67 % 1019,7 hPa 0,0 l/m 0,3 km/h (0 Bft) O-NO 75 0 min 0 lux 0 W/m
19.07.2016 03:25 18,3 C 21,6 C 67 % 1019,7 hPa 0,0 l/m 0,1 km/h (0 Bft) O-NO 75 0 min 0 lux 0 W/m
19.07.2016 03:30 18,2 C 21,6 C 67 % 1019,7 hPa 0,0 l/m 0,0 km/h (0 Bft) O-NO 75 0 min 0 lux 0 W/m
19.07.2016 03:35 18,1 C 21,6 C 68 % 1019,7 hPa 0,0 l/m 0,0 km/h (0 Bft) O-NO 75 0 min 0 lux 0 W/m
19.07.2016 03:40 18,0 C 21,5 C 68 % 1019,7 hPa 0,0 l/m 0,0 km/h (0 Bft) O-NO 75 0 min 0 lux 0 W/m
19.07.2016 03:45 18,0 C 21,4 C 68 % 1019,7 hPa 0,0 l/m 0,3 km/h (0 Bft) O-NO 75 0 min 0 lux 0 W/m
19.07.2016 03:51 18,1 C 21,5 C 68 % 1019,7 hPa 0,0 l/m 0,0 km/h (0 Bft) O-NO 75 0 min 0 lux 0 W/m
19.07.2016 03:55 18,0 C 21,5 C 67 % 1019,7 hPa 0,0 l/m 0,0 km/h (0 Bft) O-NO 75 0 min 0 lux 0 W/m
19.07.2016 04:00 18,0 C 21,5 C 67 % 1019,7 hPa 0,0 l/m 0,6 km/h (0 Bft) O-NO 75 0 min 0 lux 0 W/m
19.07.2016 04:05 18,4 C 21,5 C 66 % 1019,7 hPa 0,0 l/m 4,0 km/h (1 Bft) O-NO 75 0 min 0 lux 0 W/m
19.07.2016 04:11 18,4 C 21,6 C 66 % 1019,7 hPa 0,0 l/m 0,6 km/h (0 Bft) O-NO 75 0 min 0 lux 0 W/m
19.07.2016 04:15 18,3 C 21,5 C 66 % 1019,7 hPa 0,0 l/m 0,0 km/h (0 Bft) O-NO 75 0 min 0 lux 0 W/m
19.07.2016 04:20 18,2 C 21,4 C 66 % 1019,7 hPa 0,0 l/m 0,0 km/h (0 Bft) O-NO 75 0 min 0 lux 0 W/m
19.07.2016 04:25 18,1 C 21,4 C 66 % 1019,7 hPa 0,0 l/m 0,0 km/h (0 Bft) O-NO 75 0 min 0 lux 0 W/m
19.07.2016 04:30 17,9 C 21,4 C 67 % 1019,7 hPa 0,0 l/m 0,0 km/h (0 Bft) O-NO 75 0 min 0 lux 0 W/m
19.07.2016 04:36 17,6 C 21,3 C 67 % 1019,7 hPa 0,0 l/m 0,0 km/h (0 Bft) O-NO 75 0 min 0 lux 0 W/m
19.07.2016 04:40 17,6 C 21,3 C 68 % 1019,7 hPa 0,0 l/m 0,0 km/h (0 Bft) O-NO 75 0 min 0 lux 0 W/m
19.07.2016 04:45 17,3 C 21,3 C 68 % 1019,7 hPa 0,0 l/m 0,0 km/h (0 Bft) O-NO 75 0 min 0 lux 0 W/m
19.07.2016 04:50 17,2 C 21,3 C 69 % 1019,7 hPa 0,0 l/m 0,0 km/h (0 Bft) O-NO 75 0 min 0 lux 0 W/m
19.07.2016 04:55 17,2 C 21,3 C 69 % 1019,7 hPa 0,0 l/m 0,0 km/h (0 Bft) O-NO 75 0 min 0 lux 0 W/m
19.07.2016 05:00 17,0 C 21,3 C 69 % 1019,7 hPa 0,0 l/m 0,0 km/h (0 Bft) O-NO 75 0 min 0 lux 0 W/m
19.07.2016 05:05 16,9 C 21,2 C 70 % 1019,7 hPa 0,0 l/m 0,0 km/h (0 Bft) O-NO 75 0 min 0 lux 0 W/m
19.07.2016 05:10 16,8 C 21,3 C 70 % 1019,7 hPa 0,0 l/m 0,0 km/h (0 Bft) O-NO 75 0 min 0 lux 0 W/m
19.07.2016 05:15 16,8 C 21,1 C 70 % 1019,7 hPa 0,0 l/m 0,0 km/h (0 Bft) O-NO 75 0 min 31 lux 0 W/m
19.07.2016 05:21 16,8 C 21,2 C 71 % 1019,7 hPa 0,0 l/m 0,0 km/h (0 Bft) O-NO 75 0 min 61 lux 0 W/m
19.07.2016 05:25 16,7 C 21,0 C 72 % 1019,7 hPa 0,0 l/m 0,0 km/h (0 Bft) O-NO 75 0 min 116 lux 0 W/m
19.07.2016 05:30 16,7 C 21,0 C 72 % 1019,7 hPa 0,0 l/m 0,0 km/h (0 Bft) O-NO 75 0 min 196 lux 0 W/m
19.07.2016 05:35 16,6 C 21,0 C 72 % 1019,7 hPa 0,0 l/m 0,2 km/h (0 Bft) O-NO 75 0 min 312 lux 0 W/m
19.07.2016 05:40 16,5 C 21,0 C 72 % 1019,7 hPa 0,0 l/m 0,0 km/h (0 Bft) SO 135 0 min 462 lux 0 W/m
19.07.2016 05:45 16,4 C 20,8 C 72 % 1019,7 hPa 0,0 l/m 0,0 km/h (0 Bft) SO 135 0 min 643 lux 0 W/m
19.07.2016 05:51 16,3 C 20,9 C 72 % 1019,7 hPa 0,0 l/m 0,0 km/h (0 Bft) SO 135 0 min 863 lux 6 W/m
19.07.2016 05:55 16,3 C 20,9 C 73 % 1019,7 hPa 0,0 l/m 0,0 km/h (0 Bft) SO 135 0 min 984 lux 7 W/m
19.07.2016 06:00 16,3 C 20,7 C 73 % 1019,7 hPa 0,0 l/m 0,0 km/h (0 Bft) SO 135 0 min 1,25 klux 9 W/m
19.07.2016 06:05 16,2 C 20,6 C 74 % 1019,7 hPa 0,0 l/m 0,0 km/h (0 Bft) SO 135 0 min 1,54 klux 11 W/m
19.07.2016 06:11 16,1 C 20,7 C 74 % 1019,7 hPa 0,0 l/m 0,0 km/h (0 Bft) SO 135 0 min 1,89 klux 13 W/m
19.07.2016 06:15 16,2 C 20,7 C 74 % 1019,7 hPa 0,0 l/m 0,0 km/h (0 Bft) SO 135 0 min 2,24 klux 15 W/m
19.07.2016 06:20 16,3 C 20,9 C 74 % 1019,7 hPa 0,0 l/m 0,0 km/h (0 Bft) SO 135 0 min 2,43 klux 17 W/m
19.07.2016 06:25 16,4 C 20,9 C 74 % 1019,7 hPa 0,0 l/m 0,0 km/h (0 Bft) SO 135 0 min 3,08 klux 21 W/m
19.07.2016 06:30 16,4 C 20,9 C 74 % 1019,7 hPa 0,0 l/m 0,0 km/h (0 Bft) SO 135 0 min 3,47 klux 24 W/m
19.07.2016 06:36 16,4 C 20,7 C 75 % 1019,7 hPa 0,0 l/m 0,0 km/h (0 Bft) SO 135 0 min 3,79 klux 26 W/m
19.07.2016 06:40 16,4 C 20,8 C 75 % 1019,7 hPa 0,0 l/m 0,0 km/h (0 Bft) SO 135 0 min 4,19 klux 29 W/m
19.07.2016 06:45 16,5 C 20,8 C 75 % 1019,7 hPa 0,0 l/m 0,0 km/h (0 Bft) SO 135 0 min 4,37 klux 30 W/m
19.07.2016 06:50 16,6 C 20,8 C 75 % 1019,7 hPa 0,0 l/m 0,0 km/h (0 Bft) SO 135 0 min 4,71 klux 32 W/m
19.07.2016 06:55 16,7 C 20,7 C 75 % 1019,7 hPa 0,0 l/m 0,0 km/h (0 Bft) SO 135 0 min 5,13 klux 35 W/m
19.07.2016 07:01 16,8 C 20,6 C 75 % 1019,7 hPa 0,0 l/m 0,0 km/h (0 Bft) SO 135 0 min 5,62 klux 38 W/m
19.07.2016 07:05 17,0 C 20,7 C 75 % 1019,7 hPa 0,0 l/m 0,0 km/h (0 Bft) SO 135 0 min 7,56 klux 52 W/m
19.07.2016 07:10 17,2 C 20,8 C 75 % 1019,7 hPa 0,0 l/m 0,0 km/h (0 Bft) SO 135 0 min 14,0 klux 96 W/m
19.07.2016 07:15 17,8 C 20,9 C 74 % 1019,7 hPa 0,0 l/m 0,0 km/h (0 Bft) SO 135 5 min 18,6 klux 127 W/m
19.07.2016 07:21 18,5 C 21,0 C 72 % 1019,7 hPa 0,0 l/m 0,0 km/h (0 Bft) SO 135 6 min 19,9 klux 136 W/m
19.07.2016 07:25 18,9 C 21,0 C 72 % 1019,7 hPa 0,0 l/m 0,0 km/h (0 Bft) SO 135 4 min 21,4 klux 146 W/m
19.07.2016 07:30 19,4 C 21,0 C 70 % 1019,7 hPa 0,0 l/m 0,0 km/h (0 Bft) SO 135 5 min 23,2 klux 159 W/m
19.07.2016 07:35 19,9 C 21,0 C 68 % 1019,7 hPa 0,0 l/m 0,0 km/h (0 Bft) SO 135 5 min 24,6 klux 168 W/m
19.07.2016 07:40 20,1 C 21,0 C 69 % 1019,7 hPa 0,0 l/m 0,0 km/h (0 Bft) SO 135 5 min 25,1 klux 172 W/m
19.07.2016 07:45 20,4 C 21,1 C 68 % 1019,7 hPa 0,0 l/m 0,0 km/h (0 Bft) SO 135 5 min 26,4 klux 181 W/m
19.07.2016 07:51 21,0 C 21,1 C 67 % 1019,7 hPa 0,0 l/m 0,0 km/h (0 Bft) SO 135 6 min 27,1 klux 185 W/m
19.07.2016 07:55 21,4 C 21,1 C 66 % 1019,7 hPa 0,0 l/m 0,0 km/h (0 Bft) SO 135 4 min 28,6 klux 196 W/m
19.07.2016 08:00 21,5 C 21,4 C 66 % 1019,7 hPa 0,0 l/m 0,0 km/h (0 Bft) SO 135 5 min 30,3 klux 207 W/m
19.07.2016 08:06 21,8 C 21,3 C 65 % 1019,7 hPa 0,0 l/m 0,0 km/h (0 Bft) SO 135 6 min 31,2 klux 213 W/m
19.07.2016 08:10 21,9 C 21,4 C 65 % 1019,7 hPa 0,0 l/m 0,0 km/h (0 Bft) SO 135 4 min 33,6 klux 230 W/m
19.07.2016 08:15 21,8 C 21,4 C 65 % 1019,7 hPa 0,0 l/m 6,0 km/h (2 Bft) SO 135 5 min 34,8 klux 238 W/m
19.07.2016 08:20 22,1 C 21,4 C 65 % 1019,7 hPa 0,0 l/m 0,6 km/h (0 Bft) SO 135 5 min 35,9 klux 246 W/m
19.07.2016 08:25 22,2 C 21,6 C 64 % 1019,7 hPa 0,0 l/m 0,9 km/h (0 Bft) SO 135 5 min 36,8 klux 252 W/m
19.07.2016 08:30 22,2 C 21,6 C 65 % 1019,7 hPa 0,0 l/m 8,7 km/h (2 Bft) SO 135 5 min 37,5 klux 257 W/m
19.07.2016 08:36 22,4 C 21,7 C 65 % 1019,6 hPa 0,0 l/m 8,1 km/h (2 Bft) SO22.5 140 6 min 39,1 klux 267 W/m
19.07.2016 08:40 22,5 C 21,7 C 65 % 1019,6 hPa 0,0 l/m 7,3 km/h (2 Bft) S-SO22.5 150 4 min 40,3 klux 276 W/m
19.07.2016 08:45 22,7 C 21,8 C 65 % 1019,6 hPa 0,0 l/m 7,3 km/h (2 Bft) S-SO22.5 155 5 min 41,7 klux 285 W/m
19.07.2016 08:50 22,9 C 21,8 C 64 % 1019,6 hPa 0,0 l/m 7,9 km/h (2 Bft) S-SO22.5 155 5 min 43,1 klux 295 W/m
19.07.2016 08:55 23,2 C 22,0 C 64 % 1019,6 hPa 0,0 l/m 6,7 km/h (2 Bft) S-SO 160 5 min 44,6 klux 305 W/m
19.07.2016 09:01 23,3 C 22,0 C 63 % 1019,6 hPa 0,0 l/m 1,6 km/h (1 Bft) S-SO22.5 155 6 min 45,7 klux 313 W/m
19.07.2016 09:05 23,4 C 22,2 C 64 % 1019,6 hPa 0,0 l/m 7,7 km/h (2 Bft) S-SO22.5 155 4 min 46,8 klux 320 W/m
19.07.2016 09:10 23,7 C 22,2 C 63 % 1019,6 hPa 0,0 l/m 7,7 km/h (2 Bft) SO 145 5 min 48,0 klux 328 W/m
19.07.2016 09:15 23,9 C 22,4 C 63 % 1019,6 hPa 0,0 l/m 8,2 km/h (2 Bft) S 175 5 min 49,1 klux 336 W/m
19.07.2016 09:21 24,1 C 22,6 C 62 % 1019,6 hPa 0,0 l/m 9,7 km/h (2 Bft) S 170 6 min 50,6 klux 346 W/m
19.07.2016 09:25 24,2 C 22,6 C 61 % 1019,6 hPa 0,0 l/m 11,9 km/h (2 Bft) S 170 4 min 51,1 klux 350 W/m
19.07.2016 09:30 24,4 C 22,6 C 62 % 1019,6 hPa 0,0 l/m 7,5 km/h (2 Bft) S-SO 155 5 min 52,8 klux 361 W/m
19.07.2016 09:35 24,6 C 22,6 C 62 % 1019,6 hPa 0,0 l/m 1,5 km/h (1 Bft) S-SO 155 5 min 54,0 klux 369 W/m
19.07.2016 09:40 24,9 C 23,2 C 61 % 1019,6 hPa 0,0 l/m 9,2 km/h (2 Bft) S-SO22.5 165 5 min 55,2 klux 378 W/m
19.07.2016 09:46 25,2 C 23,2 C 59 % 1019,6 hPa 0,0 l/m 10,3 km/h (2 Bft) S22.5 170 6 min 56,7 klux 388 W/m
19.07.2016 09:50 25,4 C 23,1 C 59 % 1019,6 hPa 0,0 l/m 8,6 km/h (2 Bft) S-SO 160 4 min 58,0 klux 397 W/m
19.07.2016 09:55 25,6 C 23,4 C 59 % 1019,6 hPa 0,0 l/m 7,8 km/h (2 Bft) S-SO 150 5 min 59,5 klux 407 W/m
19.07.2016 10:00 25,8 C 23,4 C 58 % 1019,6 hPa 0,0 l/m 9,2 km/h (2 Bft) S 170 5 min 59,9 klux 410 W/m
19.07.2016 10:06 26,0 C 23,6 C 59 % 1019,6 hPa 0,0 l/m 1,8 km/h (1 Bft) SO67.5 130 6 min 61,3 klux 419 W/m
19.07.2016 10:10 26,2 C 23,7 C 58 % 1019,6 hPa 0,0 l/m 0,5 km/h (0 Bft) O-SO22.5 115 4 min 62,6 klux 428 W/m
19.07.2016 10:15 26,4 C 24,0 C 58 % 1019,6 hPa 0,0 l/m 4,8 km/h (1 Bft) S-SO 155 5 min 63,1 klux 432 W/m
19.07.2016 10:20 26,7 C 24,0 C 57 % 1019,6 hPa 0,0 l/m 7,3 km/h (2 Bft) SO22.5 145 5 min 64,3 klux 440 W/m
19.07.2016 10:25 26,8 C 24,3 C 56 % 1019,6 hPa 0,0 l/m 5,5 km/h (2 Bft) S-SO 165 5 min 65,6 klux 449 W/m
19.07.2016 10:31 27,0 C 24,3 C 56 % 1019,6 hPa 0,0 l/m 1,3 km/h (1 Bft) S 170 6 min 66,7 klux 456 W/m
19.07.2016 10:35 27,2 C 24,3 C 55 % 1019,6 hPa 0,0 l/m 9,0 km/h (2 Bft) SO22.5 130 4 min 67,7 klux 463 W/m
19.07.2016 10:40 27,4 C 24,6 C 51 % 1019,6 hPa 0,0 l/m 7,5 km/h (2 Bft) S 180 5 min 68,3 klux 467 W/m
19.07.2016 10:45 27,7 C 24,8 C 51 % 1019,6 hPa 0,0 l/m 10,6 km/h (2 Bft) S-SO22.5 160 5 min 69,5 klux 475 W/m
19.07.2016 10:50 27,8 C 25,0 C 46 % 1019,6 hPa 0,0 l/m 10,2 km/h (2 Bft) S-SO22.5 165 5 min 70,6 klux 483 W/m
19.07.2016 10:55 28,0 C 25,1 C 45 % 1019,6 hPa 0,0 l/m 9,8 km/h (2 Bft) S22.5 175 5 min 71,2 klux 487 W/m
19.07.2016 11:00 28,0 C 25,1 C 44 % 1019,6 hPa 0,0 l/m 12,6 km/h (3 Bft) S-SO22.5 165 5 min 72,6 klux 497 W/m
19.07.2016 11:05 28,2 C 25,7 C 45 % 1019,6 hPa 0,0 l/m 10,3 km/h (2 Bft) S22.5 175 5 min 73,9 klux 505 W/m
19.07.2016 11:10 28,6 C 24,5 C 45 % 1019,6 hPa 0,0 l/m 11,5 km/h (2 Bft) S-SO22.5 155 5 min 73,9 klux 505 W/m
19.07.2016 11:16 28,6 C 24,2 C 45 % 1019,6 hPa 0,0 l/m 12,1 km/h (2 Bft) S-SO22.5 160 6 min 74,5 klux 510 W/m
19.07.2016 11:20 28,8 C 24,6 C 49 % 1019,6 hPa 0,0 l/m 9,2 km/h (2 Bft) S22.5 170 4 min 75,5 klux 516 W/m
19.07.2016 11:25 28,8 C 24,4 C 49 % 1019,6 hPa 0,0 l/m 10,1 km/h (2 Bft) S-SO22.5 160 5 min 76,0 klux 520 W/m
19.07.2016 11:30 28,9 C 24,5 C 49 % 1019,6 hPa 0,0 l/m 11,0 km/h (2 Bft) S22.5 185 5 min 77,7 klux 531 W/m
19.07.2016 11:35 29,0 C 24,7 C 48 % 1019,6 hPa 0,0 l/m 13,4 km/h (3 Bft) SO45 145 5 min 78,4 klux 536 W/m
19.07.2016 11:40 29,1 C 24,6 C 48 % 1019,6 hPa 0,0 l/m 9,2 km/h (2 Bft) S22.5 170 5 min 79,1 klux 541 W/m
19.07.2016 11:46 29,2 C 24,5 C 48 % 1019,6 hPa 0,0 l/m 10,3 km/h (2 Bft) S-SO67.5 150 6 min 79,8 klux 546 W/m
19.07.2016 11:50 29,3 C 24,7 C 46 % 1019,6 hPa 0,0 l/m 9,4 km/h (2 Bft) O67.5 90 4 min 81,2 klux 555 W/m
19.07.2016 11:55 29,6 C 24,6 C 45 % 1019,6 hPa 0,0 l/m 1,8 km/h (1 Bft) S-SW22.5 195 5 min 82,2 klux 562 W/m
19.07.2016 12:00 29,5 C 24,6 C 47 % 1019,6 hPa 0,0 l/m 9,5 km/h (2 Bft) S 170 5 min 81,4 klux 557 W/m
19.07.2016 12:05 29,7 C 24,8 C 47 % 1019,6 hPa 0,0 l/m 10,2 km/h (2 Bft) S22.5 170 5 min 81,4 klux 557 W/m
19.07.2016 12:10 29,7 C 24,7 C 45 % 1019,6 hPa 0,0 l/m 10,8 km/h (2 Bft) S-SO45 150 5 min 81,5 klux 557 W/m
19.07.2016 12:15 30,0 C 24,8 C 45 % 1019,6 hPa 0,0 l/m 5,8 km/h (2 Bft) S-SO45 150 5 min 85,0 klux 581 W/m
19.07.2016 12:20 30,1 C 25,1 C 46 % 1019,6 hPa 0,0 l/m 1,3 km/h (1 Bft) O-SO22.5 120 5 min 83,4 klux 570 W/m
19.07.2016 12:26 30,1 C 25,0 C 46 % 1019,6 hPa 0,0 l/m 8,9 km/h (2 Bft) S-SO45 155 6 min 85,0 klux 581 W/m
19.07.2016 12:30 30,2 C 25,1 C 44 % 1019,6 hPa 0,0 l/m 11,6 km/h (2 Bft) S-SO22.5 160 4 min 86,0 klux 588 W/m
19.07.2016 12:35 30,4 C 25,3 C 44 % 1019,6 hPa 0,0 l/m 12,1 km/h (2 Bft) S45 170 5 min 86,0 klux 588 W/m
19.07.2016 12:40 30,0 C 25,3 C 43 % 1019,6 hPa 0,0 l/m 9,8 km/h (2 Bft) SW22.5 225 5 min 85,8 klux 587 W/m
19.07.2016 12:45 30,1 C 25,4 C 40 % 1019,6 hPa 0,0 l/m 11,6 km/h (2 Bft) S-SW22.5 195 5 min 87,4 klux 598 W/m
19.07.2016 12:50 30,2 C 25,5 C 43 % 1018,6 hPa 0,0 l/m 1,3 km/h (1 Bft) S22.5 190 5 min 87,7 klux 600 W/m
19.07.2016 12:55 30,4 C 25,5 C 43 % 1018,5 hPa 0,0 l/m 1,5 km/h (1 Bft) O-SO45 115 5 min 88,2 klux 603 W/m
19.07.2016 13:00 30,6 C 25,5 C 43 % 1018,5 hPa 0,0 l/m 10,4 km/h (2 Bft) S22.5 180 5 min 87,6 klux 599 W/m
19.07.2016 13:05 30,7 C 25,5 C 43 % 1018,5 hPa 0,0 l/m 14,0 km/h (3 Bft) S-SO45 165 5 min 85,4 klux 584 W/m
19.07.2016 13:11 30,7 C 25,6 C 42 % 1018,5 hPa 0,0 l/m 15,1 km/h (3 Bft) S45 175 6 min 88,8 klux 607 W/m
19.07.2016 13:15 30,8 C 25,5 C 42 % 1018,5 hPa 0,0 l/m 5,5 km/h (2 Bft) S-SO22.5 160 4 min 89,4 klux 611 W/m
19.07.2016 13:20 31,1 C 25,7 C 43 % 1018,5 hPa 0,0 l/m 12,0 km/h (2 Bft) SW22.5 215 5 min 82,8 klux 566 W/m
19.07.2016 13:25 31,1 C 25,6 C 42 % 1018,5 hPa 0,0 l/m 1,9 km/h (1 Bft) SO 135 5 min 83,5 klux 571 W/m
19.07.2016 13:30 30,8 C 25,6 C 41 % 1018,5 hPa 0,0 l/m 8,9 km/h (2 Bft) S22.5 175 5 min 83,9 klux 574 W/m
19.07.2016 13:35 30,9 C 25,6 C 42 % 1018,5 hPa 0,0 l/m 9,0 km/h (2 Bft) SO22.5 140 5 min 88,4 klux 605 W/m
19.07.2016 13:40 31,0 C 25,7 C 43 % 1018,5 hPa 0,0 l/m 7,6 km/h (2 Bft) O-SO22.5 120 5 min 89,4 klux 611 W/m
19.07.2016 13:45 31,3 C 26,0 C 41 % 1018,5 hPa 0,0 l/m 10,8 km/h (2 Bft) S45 175 5 min 88,2 klux 603 W/m
19.07.2016 13:50 31,3 C 25,9 C 42 % 1018,5 hPa 0,0 l/m 6,9 km/h (2 Bft) S-SW22.5 205 5 min 88,4 klux 605 W/m
19.07.2016 13:55 31,6 C 26,3 C 39 % 1018,5 hPa 0,0 l/m 13,0 km/h (3 Bft) S22.5 170 5 min 86,6 klux 592 W/m
19.07.2016 14:00 31,5 C 26,3 C 40 % 1018,5 hPa 0,0 l/m 7,2 km/h (2 Bft) S-SO 165 5 min 86,7 klux 593 W/m
19.07.2016 14:05 31,4 C 26,5 C 39 % 1018,5 hPa 0,0 l/m 14,8 km/h (3 Bft) S-SO22.5 165 5 min 86,7 klux 593 W/m
19.07.2016 14:10 31,3 C 26,5 C 39 % 1018,5 hPa 0,0 l/m 10,4 km/h (2 Bft) S-SO22.5 155 5 min 86,1 klux 589 W/m
19.07.2016 14:15 31,2 C 26,4 C 39 % 1018,5 hPa 0,0 l/m 9,9 km/h (2 Bft) S-SO22.5 150 5 min 85,2 klux 583 W/m
19.07.2016 14:20 31,3 C 27,0 C 41 % 1018,5 hPa 0,0 l/m 12,5 km/h (2 Bft) O-SO67.5 105 5 min 85,8 klux 587 W/m
19.07.2016 14:26 31,4 C 26,8 C 39 % 1018,5 hPa 0,0 l/m 13,7 km/h (3 Bft) S22.5 170 6 min 83,5 klux 571 W/m
19.07.2016 14:30 31,4 C 26,8 C 38 % 1018,5 hPa 0,0 l/m 1,8 km/h (1 Bft) S-SO22.5 155 4 min 86,2 klux 590 W/m
19.07.2016 14:35 31,8 C 26,7 C 40 % 1018,5 hPa 0,0 l/m 6,7 km/h (2 Bft) N67.5 360 5 min 86,4 klux 591 W/m
19.07.2016 14:40 31,9 C 27,3 C 38 % 1018,5 hPa 0,0 l/m 10,6 km/h (2 Bft) S22.5 170 5 min 85,0 klux 581 W/m
19.07.2016 14:45 32,0 C 27,1 C 38 % 1018,5 hPa 0,0 l/m 12,6 km/h (3 Bft) S-SW45 205 5 min 86,2 klux 590 W/m
19.07.2016 14:51 32,3 C 27,8 C 37 % 1017,5 hPa 0,0 l/m 8,5 km/h (2 Bft) SW67.5 235 6 min 83,2 klux 569 W/m
19.07.2016 14:55 32,0 C 27,2 C 38 % 1017,5 hPa 0,0 l/m 6,5 km/h (2 Bft) W22.5 265 4 min 83,1 klux 568 W/m
19.07.2016 15:00 32,0 C 26,7 C 37 % 1017,5 hPa 0,0 l/m 8,3 km/h (2 Bft) O22.5 85 5 min 83,8 klux 573 W/m
19.07.2016 15:05 32,0 C 27,9 C 38 % 1017,5 hPa 0,0 l/m 17,6 km/h (3 Bft) O-NO22.5 75 5 min 82,4 klux 564 W/m
19.07.2016 15:10 32,2 C 26,7 C 36 % 1017,5 hPa 0,0 l/m 6,1 km/h (2 Bft) SO45 135 5 min 80,0 klux 547 W/m
19.07.2016 15:15 32,1 C 28,9 C 37 % 1017,5 hPa 0,0 l/m 9,8 km/h (2 Bft) S-SO45 150 5 min 82,2 klux 562 W/m
19.07.2016 15:20 32,0 C 29,6 C 35 % 1017,5 hPa 0,0 l/m 4,7 km/h (1 Bft) W-SW45 240 5 min 78,3 klux 536 W/m
19.07.2016 15:25 32,2 C 29,3 C 36 % 1017,5 hPa 0,0 l/m 7,4 km/h (2 Bft) W-SW45 240 5 min 81,4 klux 557 W/m
19.07.2016 15:30 32,5 C 30,3 C 36 % 1017,5 hPa 0,0 l/m 10,1 km/h (2 Bft) W-SW45 240 5 min 79,6 klux 544 W/m
19.07.2016 15:36 32,4 C 28,4 C 34 % 1017,5 hPa 0,0 l/m 9,8 km/h (2 Bft) SW22.5 215 6 min 79,4 klux 543 W/m
19.07.2016 15:40 32,6 C 28,8 C 36 % 1017,5 hPa 0,0 l/m 6,7 km/h (2 Bft) S-SO45 155 4 min 72,6 klux 497 W/m
19.07.2016 15:45 32,4 C 28,3 C 36 % 1017,5 hPa 0,0 l/m 7,5 km/h (2 Bft) SO45 130 5 min 75,1 klux 514 W/m
19.07.2016 15:50 32,8 C 29,1 C 36 % 1017,5 hPa 0,0 l/m 6,2 km/h (2 Bft) SO22.5 145 5 min 76,7 klux 525 W/m
19.07.2016 15:55 32,8 C 30,2 C 36 % 1017,5 hPa 0,0 l/m 10,2 km/h (2 Bft) S45 170 5 min 75,5 klux 516 W/m
19.07.2016 16:01 32,8 C 29,3 C 35 % 1017,5 hPa 0,0 l/m 14,8 km/h (3 Bft) S45 170 6 min 74,7 klux 511 W/m
19.07.2016 16:05 32,6 C 30,2 C 35 % 1017,5 hPa 0,0 l/m 10,6 km/h (2 Bft) S-SO22.5 150 4 min 74,7 klux 511 W/m
19.07.2016 16:10 32,6 C 29,9 C 34 % 1017,5 hPa 0,0 l/m 10,9 km/h (2 Bft) S22.5 185 5 min 74,3 klux 508 W/m
19.07.2016 16:15 32,8 C 30,5 C 34 % 1017,5 hPa 0,0 l/m 8,9 km/h (2 Bft) SW22.5 220 5 min 73,4 klux 502 W/m
19.07.2016 16:20 32,9 C 30,2 C 34 % 1017,5 hPa 0,0 l/m 8,9 km/h (2 Bft) SW22.5 220 5 min 72,5 klux 496 W/m
19.07.2016 16:25 33,0 C 30,1 C 34 % 1017,5 hPa 0,0 l/m 12,8 km/h (3 Bft) S-SW45 205 5 min 71,4 klux 488 W/m
19.07.2016 16:30 33,2 C 31,1 C 34 % 1017,5 hPa 0,0 l/m 1,2 km/h (1 Bft) O45 100 5 min 69,7 klux 477 W/m
19.07.2016 16:35 33,4 C 30,4 C 35 % 1017,5 hPa 0,0 l/m 9,0 km/h (2 Bft) S-SW22.5 195 5 min 70,3 klux 481 W/m
19.07.2016 16:40 33,4 C 31,2 C 34 % 1017,5 hPa 0,0 l/m 16,2 km/h (3 Bft) S-SW45 210 5 min 69,6 klux 476 W/m
19.07.2016 16:45 33,4 C 29,0 C 35 % 1017,5 hPa 0,0 l/m 3,4 km/h (1 Bft) S22.5 175 5 min 69,3 klux 474 W/m
19.07.2016 16:50 33,2 C 29,2 C 32 % 1016,5 hPa 0,0 l/m 0,7 km/h (0 Bft) SO45 125 5 min 67,7 klux 463 W/m
19.07.2016 16:55 32,7 C 30,5 C 33 % 1016,5 hPa 0,0 l/m 9,5 km/h (2 Bft) O22.5 100 5 min 67,9 klux 464 W/m
19.07.2016 17:00 32,7 C 29,2 C 34 % 1016,5 hPa 0,0 l/m 11,3 km/h (2 Bft) O-SO67.5 110 5 min 64,2 klux 439 W/m
19.07.2016 17:05 32,8 C 29,6 C 34 % 1016,5 hPa 0,0 l/m 11,0 km/h (2 Bft) S22.5 170 5 min 63,0 klux 431 W/m
19.07.2016 17:10 33,0 C 30,4 C 33 % 1016,5 hPa 0,0 l/m 12,0 km/h (2 Bft) S-SW22.5 195 5 min 60,3 klux 412 W/m
19.07.2016 17:15 33,0 C 30,7 C 33 % 1016,5 hPa 0,0 l/m 13,6 km/h (3 Bft) S-SW45 200 5 min 58,5 klux 400 W/m
19.07.2016 17:20 33,1 C 31,2 C 34 % 1016,5 hPa 0,0 l/m 12,3 km/h (2 Bft) SW22.5 225 5 min 59,9 klux 410 W/m
19.07.2016 17:26 32,8 C 29,6 C 33 % 1016,5 hPa 0,0 l/m 11,9 km/h (2 Bft) O22.5 95 6 min 56,2 klux 384 W/m
19.07.2016 17:30 32,7 C 28,9 C 34 % 1016,5 hPa 0,0 l/m 7,9 km/h (2 Bft) O-NO45 60 4 min 59,7 klux 408 W/m
19.07.2016 17:35 32,4 C 30,3 C 34 % 1016,5 hPa 0,0 l/m 3,8 km/h (1 Bft) S-SO 160 5 min 58,0 klux 397 W/m
19.07.2016 17:40 32,6 C 29,8 C 34 % 1016,5 hPa 0,0 l/m 3,8 km/h (1 Bft) S-SO 160 5 min 57,3 klux 392 W/m
19.07.2016 17:45 32,5 C 30,9 C 34 % 1016,5 hPa 0,0 l/m 10,1 km/h (2 Bft) S-SO45 165 5 min 57,1 klux 391 W/m
19.07.2016 17:46 32,5 C 30,9 C 34 % 1016,5 hPa 0,0 l/m 10,1 km/h (2 Bft) S-SO45 165 1 min 57,1 klux 391 W/m
19.07.2016 17:50 32,4 C 30,5 C 34 % 1016,5 hPa 0,0 l/m 7,7 km/h (2 Bft) S-SO45 150 4 min 55,6 klux 380 W/m
19.07.2016 17:55 32,4 C 30,9 C 33 % 1016,5 hPa 0,0 l/m 11,6 km/h (2 Bft) S-SO45 150 5 min 53,9 klux 369 W/m
19.07.2016 18:01 32,6 C 30,7 C 34 % 1016,5 hPa 0,0 l/m 8,7 km/h (2 Bft) S22.5 175 6 min 52,7 klux 360 W/m
19.07.2016 18:05 32,5 C 30,0 C 33 % 1016,5 hPa 0,0 l/m 4,9 km/h (1 Bft) SO22.5 135 4 min 51,1 klux 350 W/m
19.07.2016 18:10 32,3 C 30,8 C 34 % 1016,5 hPa 0,0 l/m 6,4 km/h (2 Bft) S67.5 175 5 min 50,7 klux 347 W/m
19.07.2016 18:16 32,2 C 31,0 C 35 % 1016,5 hPa 0,0 l/m 10,5 km/h (2 Bft) SO45 145 6 min 50,5 klux 345 W/m
19.07.2016 18:20 32,0 C 29,2 C 34 % 1016,5 hPa 0,0 l/m 6,1 km/h (2 Bft) SO45 130 4 min 49,7 klux 340 W/m
19.07.2016 18:25 32,1 C 29,2 C 34 % 1016,5 hPa 0,0 l/m 1,8 km/h (1 Bft) O-SO22.5 120 5 min 47,0 klux 321 W/m
19.07.2016 18:30 32,0 C 30,4 C 35 % 1016,5 hPa 0,0 l/m 6,7 km/h (2 Bft) SO22.5 130 5 min 46,2 klux 316 W/m
19.07.2016 18:35 32,0 C 30,5 C 34 % 1016,5 hPa 0,0 l/m 0,9 km/h (0 Bft) S-SO22.5 160 5 min 44,0 klux 301 W/m
19.07.2016 18:41 32,0 C 30,6 C 34 % 1016,5 hPa 0,0 l/m 9,2 km/h (2 Bft) S 170 6 min 42,2 klux 289 W/m
19.07.2016 18:45 32,2 C 30,6 C 34 % 1016,5 hPa 0,0 l/m 11,2 km/h (2 Bft) S-SO22.5 165 4 min 42,0 klux 287 W/m
19.07.2016 18:50 32,2 C 30,5 C 34 % 1016,5 hPa 0,0 l/m 12,4 km/h (2 Bft) S22.5 180 5 min 39,8 klux 272 W/m
19.07.2016 18:55 32,0 C 30,7 C 34 % 1016,5 hPa 0,0 l/m 6,5 km/h (2 Bft) SO22.5 145 5 min 39,8 klux 272 W/m
19.07.2016 19:00 32,0 C 30,7 C 34 % 1016,5 hPa 0,0 l/m 3,4 km/h (1 Bft) S-SO 150 5 min 38,2 klux 261 W/m
19.07.2016 19:05 31,9 C 30,0 C 34 % 1016,5 hPa 0,0 l/m 11,4 km/h (2 Bft) S22.5 170 5 min 37,8 klux 259 W/m
19.07.2016 19:10 31,9 C 29,9 C 34 % 1016,5 hPa 0,0 l/m 11,0 km/h (2 Bft) S-SO22.5 150 5 min 36,6 klux 250 W/m
19.07.2016 19:15 31,8 C 29,0 C 35 % 1015,5 hPa 0,0 l/m 0,6 km/h (0 Bft) O-SO22.5 120 5 min 34,9 klux 239 W/m
19.07.2016 19:20 31,8 C 29,0 C 35 % 1015,5 hPa 0,0 l/m 1,1 km/h (1 Bft) O-SO22.5 115 5 min 33,9 klux 232 W/m
19.07.2016 19:26 32,0 C 29,8 C 35 % 1015,5 hPa 0,0 l/m 4,8 km/h (1 Bft) S 170 6 min 33,4 klux 228 W/m
19.07.2016 19:30 32,0 C 29,8 C 36 % 1015,5 hPa 0,0 l/m 6,7 km/h (2 Bft) S-SO45 155 4 min 31,5 klux 215 W/m
19.07.2016 19:35 31,6 C 29,5 C 37 % 1015,5 hPa 0,0 l/m 4,2 km/h (1 Bft) O 95 5 min 30,7 klux 210 W/m
19.07.2016 19:40 31,6 C 29,5 C 37 % 1015,5 hPa 0,0 l/m 10,1 km/h (2 Bft) S-SO22.5 160 5 min 29,6 klux 202 W/m
19.07.2016 19:45 31,5 C 29,5 C 37 % 1015,5 hPa 0,0 l/m 8,3 km/h (2 Bft) S-SO 160 5 min 28,4 klux 194 W/m
19.07.2016 19:51 31,5 C 29,5 C 38 % 1015,5 hPa 0,0 l/m 8,3 km/h (2 Bft) S-SO22.5 165 6 min 26,0 klux 178 W/m
19.07.2016 19:55 31,3 C 29,5 C 38 % 1015,5 hPa 0,0 l/m 8,9 km/h (2 Bft) S-SO22.5 155 4 min 25,7 klux 176 W/m
19.07.2016 20:00 31,2 C 29,5 C 38 % 1015,5 hPa 0,0 l/m 6,8 km/h (2 Bft) SO22.5 125 5 min 24,8 klux 170 W/m
19.07.2016 20:05 31,0 C 29,5 C 39 % 1015,5 hPa 0,0 l/m 1,3 km/h (1 Bft) O-SO22.5 115 5 min 23,2 klux 159 W/m
19.07.2016 20:10 30,8 C 29,5 C 39 % 1015,5 hPa 0,0 l/m 0,9 km/h (0 Bft) SO 125 5 min 20,5 klux 140 W/m
19.07.2016 20:15 30,7 C 29,5 C 38 % 1015,5 hPa 0,0 l/m 1,4 km/h (1 Bft) O-SO22.5 110 5 min 18,5 klux 127 W/m
19.07.2016 20:20 30,6 C 29,5 C 41 % 1015,5 hPa 0,0 l/m 0,4 km/h (0 Bft) O-SO 110 5 min 18,1 klux 124 W/m
19.07.2016 20:25 30,4 C 29,5 C 41 % 1015,5 hPa 0,0 l/m 1,2 km/h (1 Bft) O-SO22.5 120 5 min 16,6 klux 114 W/m
19.07.2016 20:30 30,3 C 29,5 C 41 % 1015,5 hPa 0,0 l/m 1,1 km/h (1 Bft) SO 125 0 min 9,3 klux 63 W/m
19.07.2016 20:35 30,0 C 29,5 C 43 % 1015,5 hPa 0,0 l/m 1,0 km/h (0 Bft) SO 125 0 min 4,03 klux 28 W/m
19.07.2016 20:40 29,7 C 29,5 C 43 % 1015,5 hPa 0,0 l/m 0,2 km/h (0 Bft) SO 125 0 min 3,68 klux 25 W/m
19.07.2016 20:45 29,4 C 29,5 C 43 % 1015,5 hPa 0,0 l/m 0,5 km/h (0 Bft) SO 125 0 min 3,38 klux 23 W/m
19.07.2016 20:50 29,1 C 29,5 C 44 % 1015,6 hPa 0,0 l/m 0,0 km/h (0 Bft) SO 125 0 min 3,24 klux 22 W/m
19.07.2016 20:55 28,8 C 28,5 C 45 % 1015,6 hPa 0,0 l/m 0,6 km/h (0 Bft) SO 125 0 min 2,97 klux 20 W/m
19.07.2016 21:00 28,6 C 28,5 C 45 % 1015,6 hPa 0,0 l/m 0,2 km/h (0 Bft) SO 125 0 min 2,61 klux 18 W/m
19.07.2016 21:05 28,4 C 28,5 C 45 % 1015,6 hPa 0,0 l/m 0,0 km/h (0 Bft) SO 125 0 min 2,31 klux 16 W/m
19.07.2016 21:10 28,3 C 27,6 C 46 % 1015,6 hPa 0,0 l/m 0,0 km/h (0 Bft) SO 125 0 min 1,86 klux 13 W/m
19.07.2016 21:16 28,0 C 27,6 C 47 % 1015,6 hPa 0,0 l/m 0,0 km/h (0 Bft) SO 125 0 min 1,71 klux 12 W/m
19.07.2016 21:20 27,8 C 27,5 C 47 % 1015,6 hPa 0,0 l/m 0,0 km/h (0 Bft) SO 125 0 min 1,42 klux 10 W/m
19.07.2016 21:25 27,6 C 27,5 C 48 % 1015,6 hPa 0,0 l/m 0,0 km/h (0 Bft) SO 125 0 min 1,14 klux 8 W/m
19.07.2016 21:30 27,4 C 27,5 C 49 % 1015,6 hPa 0,0 l/m 0,0 km/h (0 Bft) SO 125 0 min 886 lux 6 W/m
19.07.2016 21:35 27,4 C 27,4 C 49 % 1015,6 hPa 0,0 l/m 0,2 km/h (0 Bft) SO 125 0 min 653 lux 0 W/m
19.07.2016 21:41 27,2 C 27,4 C 50 % 1015,6 hPa 0,0 l/m 4,8 km/h (1 Bft) SO 125 0 min 463 lux 0 W/m
19.07.2016 21:45 27,0 C 27,4 C 50 % 1015,6 hPa 0,0 l/m 1,0 km/h (0 Bft) SO 125 0 min 385 lux 0 W/m
19.07.2016 21:50 26,9 C 27,4 C 50 % 1015,6 hPa 0,0 l/m 0,0 km/h (0 Bft) O-SO 120 0 min 204 lux 0 W/m
19.07.2016 21:55 26,8 C 27,4 C 50 % 1015,6 hPa 0,0 l/m 5,7 km/h (2 Bft) O-SO22.5 105 0 min 160 lux 0 W/m
19.07.2016 22:00 26,8 C 27,4 C 51 % 1015,6 hPa 0,0 l/m 5,9 km/h (2 Bft) O 85 0 min 93 lux 0 W/m
19.07.2016 22:05 26,7 C 27,4 C 51 % 1015,6 hPa 0,0 l/m 0,9 km/h (0 Bft) O 85 0 min 50 lux 0 W/m
19.07.2016 22:10 26,7 C 27,4 C 51 % 1015,6 hPa 0,0 l/m 2,5 km/h (1 Bft) O 85 0 min 27 lux 0 W/m
19.07.2016 22:15 26,6 C 27,4 C 51 % 1015,6 hPa 0,0 l/m 3,3 km/h (1 Bft) O 85 0 min 13 lux 0 W/m
19.07.2016 22:20 26,4 C 27,4 C 52 % 1015,6 hPa 0,0 l/m 0,7 km/h (0 Bft) O 85 0 min 5 lux 0 W/m
19.07.2016 22:25 26,3 C 27,4 C 52 % 1015,6 hPa 0,0 l/m 7,9 km/h (2 Bft) O22.5 90 0 min 2 lux 0 W/m
19.07.2016 22:30 26,2 C 27,4 C 53 % 1015,6 hPa 0,0 l/m 9,7 km/h (2 Bft) O22.5 85 0 min 1 lux 0 W/m
19.07.2016 22:35 26,3 C 27,4 C 53 % 1015,6 hPa 0,0 l/m 9,0 km/h (2 Bft) O22.5 85 0 min 1 lux 0 W/m
19.07.2016 22:40 26,2 C 26,7 C 53 % 1015,6 hPa 0,0 l/m 9,8 km/h (2 Bft) O22.5 95 0 min 1 lux 0 W/m
19.07.2016 22:45 26,2 C 26,7 C 53 % 1015,6 hPa 0,0 l/m 8,4 km/h (2 Bft) O22.5 80 0 min 0 lux 0 W/m
19.07.2016 22:50 26,2 C 26,7 C 53 % 1015,6 hPa 0,0 l/m 10,4 km/h (2 Bft) O22.5 80 0 min 0 lux 0 W/m
19.07.2016 22:55 26,1 C 26,5 C 52 % 1015,6 hPa 0,0 l/m 15,3 km/h (3 Bft) O22.5 90 0 min 0 lux 0 W/m
19.07.2016 23:00 26,1 C 26,5 C 52 % 1015,6 hPa 0,0 l/m 17,3 km/h (3 Bft) O45 95 0 min 0 lux 0 W/m
19.07.2016 23:05 26,0 C 26,5 C 52 % 1015,6 hPa 0,0 l/m 15,1 km/h (3 Bft) O67.5 95 0 min 0 lux 0 W/m
19.07.2016 23:10 25,8 C 26,4 C 53 % 1015,6 hPa 0,0 l/m 13,1 km/h (3 Bft) O45 100 0 min 0 lux 0 W/m
19.07.2016 23:15 25,7 C 26,4 C 53 % 1015,6 hPa 0,0 l/m 13,2 km/h (3 Bft) O22.5 95 0 min 0 lux 0 W/m
19.07.2016 23:20 25,6 C 26,3 C 53 % 1015,6 hPa 0,0 l/m 10,8 km/h (2 Bft) O22.5 95 0 min 0 lux 0 W/m
19.07.2016 23:26 25,4 C 26,3 C 54 % 1015,6 hPa 0,0 l/m 8,4 km/h (2 Bft) O45 100 0 min 0 lux 0 W/m
19.07.2016 23:30 25,4 C 26,3 C 54 % 1015,6 hPa 0,0 l/m 10,5 km/h (2 Bft) O22.5 85 0 min 0 lux 0 W/m
19.07.2016 23:35 25,3 C 26,2 C 54 % 1015,6 hPa 0,0 l/m 10,8 km/h (2 Bft) O45 95 0 min 0 lux 0 W/m
19.07.2016 23:40 25,0 C 26,1 C 55 % 1015,6 hPa 0,0 l/m 13,2 km/h (3 Bft) O22.5 90 0 min 0 lux 0 W/m
19.07.2016 23:45 24,9 C 26,1 C 55 % 1015,6 hPa 0,0 l/m 8,8 km/h (2 Bft) O-SO67.5 105 0 min 0 lux 0 W/m
19.07.2016 23:51 24,9 C 26,1 C 56 % 1015,6 hPa 0,0 l/m 10,6 km/h (2 Bft) O45 95 0 min 0 lux 0 W/m
19.07.2016 23:55 24,9 C 26,0 C 55 % 1015,6 hPa 0,0 l/m 10,0 km/h (2 Bft) O22.5 90 0 min 0 lux 0 W/m
_ Min-Zeit 06:11 06:05 16:50 19:26 - 01:05 - - - - -
Minimum _ 16,1 C 20,6 C 32 % 1015,5 hPa - 0,0 km/h (0 Bft) - - - - -
_ Max-Zeit 16:35 16:40 06:36 06:11 00:00 15:05 - - 07:21 13:15 13:15
Maximum _ 33,4 C 31,2 C 75 % 1019,7 hPa 0,0 l/m 17,6 km/h
O-NO (3 Bft)
- - 6 min 89,4 klux 611 W/m
Durchschnitt _ 25,6 C 25,1 C 53 % 1018,3 hPa #0,0 l/m 5,5 km/h (2 Bft) S-SO - #13:15 h 33,9 klux 353 W/m